Weather History for Oroville, CA

Change the Weather History Date:

Wednesday, October 31, 2012

  Actual Average Record
Temperature  
Mean Temperature 59 °F -  
Max Temperature 64 °F 70 °F 86 °F (1965)
Min Temperature 54 °F 46 °F 33 °F (1971)
Degree Days  
Heating Degree Days 6    
Growing Degree Days 9 (Base 50)    
Moisture  
Dew Point 54 °F    
Average Humidity 84    
Maximum Humidity 100    
Minimum Humidity 65    
Precipitation  
Precipitation 0.55 in - - ()
Sea Level Pressure  
Sea Level Pressure 29.98 in    
Wind  
Wind Speed 10 mph (SE)    
Max Wind Speed 20 mph    
Max Gust Speed 24 mph    
Visibility 8 miles    
Events Rain    
Averages and records for this station are not official NWS values.
T = Trace of Precipitation, MM = Missing Value Source: NWS Daily Summary

Daily Weather History Graph

Daily Weather History Graph

Search for Another Location

Airport:

Trip Planner

Search our weather history database for the weather conditions in past years. The results will help you decide how hot, cold, wet, or windy it might be!

Date:

Astronomy

Oct. 31, 2012 Rise Set
Actual Time 7:34 AM PDT 6:05 PM PDT
Civil Twilight 7:06 AM PDT 6:33 PM PDT
Nautical Twilight 6:34 AM PDT 7:04 PM PDT
Astronomical Twilight 6:03 AM PDT 7:36 PM PDT
Moon 7:21 PM PDT (10/31) 9:19 AM PDT (10/31)
Length of Visible Light 11h 26m
Length of Day
10h 31m
Waning Gibbous, 97% of the Moon is Illuminated
Oct 31
Waning Gibbous
Nov 6
Last Quarter
Nov 13
New
Nov 20
First Quarter
Nov 28
Full

Hourly Weather History & Observations

Time (PDT) Temp. Dew Point Humidity Pressure Visibility Wind Dir Wind Speed Gust Speed Precip Events Conditions
12:53 AM 63.0 °F 52.0 °F 67% 29.95 in 10.0 mi ESE 9.2 mph - N/A   Clear
1:53 AM 63.0 °F 51.1 °F 65% 29.94 in 10.0 mi ESE 9.2 mph - N/A   Clear
2:53 AM 57.9 °F 50.0 °F 75% 29.94 in 10.0 mi SSE 5.8 mph - N/A   Clear
3:53 AM 55.9 °F 50.0 °F 80% 29.93 in 10.0 mi SSE 5.8 mph - N/A   Clear
4:53 AM 54.0 °F 51.1 °F 90% 29.94 in 10.0 mi SSE 5.8 mph - N/A   Clear
5:53 AM 55.0 °F 53.1 °F 93% 29.94 in 10.0 mi SSE 10.4 mph - N/A   Clear
6:53 AM 55.0 °F 53.1 °F 93% 29.96 in 10.0 mi SSE 10.4 mph - N/A   Clear
7:53 AM 55.0 °F 53.1 °F 93% 29.97 in 10.0 mi ESE 9.2 mph - N/A   Clear
8:53 AM 57.0 °F 53.1 °F 87% 29.99 in 10.0 mi SSE 13.8 mph - N/A   Clear
9:53 AM 57.9 °F 54.0 °F 87% 30.01 in 10.0 mi SSE 12.7 mph - N/A   Clear
10:53 AM 61.0 °F 53.1 °F 75% 30.00 in 10.0 mi SE 18.4 mph - N/A   Clear
11:53 AM 62.1 °F 53.1 °F 72% 30.01 in 10.0 mi SE 15.0 mph 24.2 mph N/A   Clear
12:53 PM 64.0 °F 53.1 °F 67% 29.98 in 10.0 mi SSE 18.4 mph - N/A   Clear
1:53 PM 63.0 °F 53.1 °F 70% 29.97 in 10.0 mi SSE 19.6 mph - N/A   Clear
2:53 PM 63.0 °F 52.0 °F 67% 29.99 in 10.0 mi SSE 13.8 mph - N/A   Mostly Cloudy
3:53 PM 63.0 °F 52.0 °F 67% 29.98 in 10.0 mi SSE 16.1 mph - N/A   Scattered Clouds
5:53 PM 59.0 °F 54.0 °F 83% 29.96 in 5.0 mi East 10.4 mph - 0.03 in Rain Rain
6:53 PM 57.9 °F 55.9 °F 93% 30.01 in 5.0 mi SSE 8.1 mph - 0.09 in Rain Rain
7:53 PM 57.0 °F 55.9 °F 96% 30.01 in 7.0 mi SE 10.4 mph - 0.07 in Rain Light Rain
8:18 PM 57.0 °F 57.0 °F 100% 30.00 in 4.0 mi ESE 8.1 mph - 0.06 in Rain Rain
8:53 PM 57.0 °F 57.0 °F 100% 30.01 in 5.0 mi ESE 9.2 mph - 0.12 in Rain Rain
9:53 PM 57.0 °F 55.9 °F 96% 30.02 in 5.0 mi ESE 9.2 mph - 0.09 in Rain Rain
10:53 PM 57.0 °F 55.9 °F 96% 30.03 in 5.0 mi SE 10.4 mph - 0.10 in Rain Rain
11:53 PM 57.0 °F 57.0 °F 100% 30.02 in 9.0 mi SE 8.1 mph - 0.05 in Rain Light Rain